Weather reports worldwide

Advertisment
Holbeach, United Kingdom (3469): temperature & dewpoint: 10.07.2019 10:00:00 - 16.07.2019 10:00:00 (BST)Holbeach, United Kingdom (3469): temperature -20cm & temperature -100cm: 10.07.2019 10:00:00 - 16.07.2019 10:00:00 (BST)Holbeach, United Kingdom (3469): wind speed: 10.07.2019 10:00:00 - 16.07.2019 10:00:00 (BST)Holbeach, United Kingdom (3469): wind direction: 10.07.2019 10:00:00 - 16.07.2019 10:00:00 (BST)Holbeach, United Kingdom (3469): reduced air pressure: 10.07.2019 10:00:00 - 16.07.2019 10:00:00 (BST)Holbeach, United Kingdom (3469): visibility: 10.07.2019 10:00:00 - 16.07.2019 10:00:00 (BST)Holbeach, United Kingdom (3469): precipitation: 10.07.2019 10:00:00 - 16.07.2019 10:00:00 (BST)
Date & Time tt [°C] td [°C] tt -20cm [°C] tt -100cm [°C] ff [km/h] ff [kn] dd ppp [hPa] vv [km] rr [mm]
16.07.2019 10:00:00 - - - - - - - - - -
16.07.2019 09:00:00 18,5 14,8 - - 13 7 WNW 1019,6 21 0,0
16.07.2019 08:00:00 15,5 13,6 - - 13 7 W 1019,8 30 0,0
16.07.2019 07:00:00 12,9 12,9 - - 13 7 WSW 1019,8 12 0,0
16.07.2019 06:00:00 9,7 9,7 - - 13 7 SW 1019,6 7 0,0
16.07.2019 05:00:00 8,9 8,7 - - 11 6 SW 1019,5 6 0,0
16.07.2019 04:00:00 9,1 8,8 - - 11 6 SW 1019,8 7 0,0
16.07.2019 03:00:00 9,9 9,6 - - 11 6 WSW 1020,3 10 0,0
16.07.2019 02:00:00 10,0 9,6 - - 11 6 SW 1020,5 13 0,0
16.07.2019 01:00:00 10,5 10,0 - - 11 6 SW 1020,9 12 0,0
16.07.2019 00:00:00 10,6 9,6 - - 13 7 SW 1021,1 17 0,0
15.07.2019 23:00:00 12,0 10,8 - - 9 5 SSW 1021,1 26 0,0
15.07.2019 22:00:00 12,9 10,9 - - 11 6 SW 1021,1 35 0,0
15.07.2019 21:00:00 15,5 11,9 - - 11 6 SSW 1020,9 45 0,0
15.07.2019 20:00:00 18,6 12,3 - - 11 6 SSW 1020,9 45 0,0
15.07.2019 19:00:00 20,2 12,1 - - 9 5 SW 1021,2 35 0,0
15.07.2019 18:00:00 19,5 12,0 - - 5 3 S 1021,4 30 0,0
15.07.2019 17:00:00 18,5 11,5 - - 5 3 SSE 1022,1 40 0,0
15.07.2019 16:00:00 19,3 12,1 - - 9 5 S 1022,5 10 0,0
15.07.2019 15:00:00 18,1 12,4 - - 13 7 E 1022,8 45 0,0
15.07.2019 14:00:00 18,0 11,6 - - 8 4 NNE 1023,1 45 0,0
15.07.2019 13:00:00 17,0 11,3 - - 5 3 N 1023,4 35 0,0
15.07.2019 12:00:00 16,6 11,5 - - 9 5 NNE 1023,4 40 0,0
15.07.2019 11:00:00 16,1 11,0 - - 11 6 NE 1023,5 10 0,0
15.07.2019 10:00:00 16,7 11,9 17,2 15,7 13 7 NNE 1023,5 10 0,0
15.07.2019 09:00:00 15,3 11,7 - - 15 8 N 1023,4 50 0,0
15.07.2019 08:00:00 14,3 11,4 - - 11 6 NNW 1023,5 40 0,0
15.07.2019 07:00:00 13,8 11,0 - - 13 7 N 1023,4 50 0,0
15.07.2019 06:00:00 13,5 11,1 - - 16 9 N 1023,4 40 0,0
15.07.2019 05:00:00 13,4 11,4 - - 15 8 N 1023,6 50 0,0
15.07.2019 04:00:00 12,7 11,6 - - 13 7 NNW 1023,5 50 0,0
15.07.2019 03:00:00 12,4 11,5 - - 9 5 NW 1023,7 45 0,0
15.07.2019 02:00:00 11,7 11,1 - - 11 6 NNW 1023,9 40 0,0
15.07.2019 01:00:00 11,5 10,8 - - 11 6 NW 1024,2 45 0,0
15.07.2019 00:00:00 11,2 10,2 - - 9 5 NNW 1024,3 27 0,0
14.07.2019 23:00:00 12,8 10,6 - - 16 9 NNE 1024,4 50 0,0
14.07.2019 22:00:00 14,0 10,9 - - 24 13 NNE 1024,5 40 0,0
14.07.2019 21:00:00 14,8 11,5 - - 28 15 NNE 1024,3 45 0,0
14.07.2019 20:00:00 15,6 10,7 - - 31 17 NNE 1024,4 50 0,0
14.07.2019 19:00:00 17,0 12,0 - - 31 17 NE 1024,3 40 0,0
14.07.2019 18:00:00 17,9 11,8 - - 29 16 NE 1024,3 45 0,0
14.07.2019 17:00:00 17,9 13,1 - - 31 17 NE 1024,3 30 0,0
14.07.2019 16:00:00 18,0 12,9 - - 34 18 NE 1024,5 35 0,0
14.07.2019 15:00:00 17,5 12,9 - - 35 19 NE 1024,6 35 0,0
14.07.2019 14:00:00 17,6 12,9 - - 26 14 NE 1024,5 45 0,0
14.07.2019 13:00:00 16,4 14,0 - - 24 13 NE 1024,6 40 0,0
14.07.2019 12:00:00 17,3 12,9 - - 18 10 NNE 1024,6 40 0,0
14.07.2019 11:00:00 18,4 13,5 - - 16 9 NE 1024,3 45 0,0
14.07.2019 10:00:00 16,9 13,9 17,7 15,7 13 7 NNE 1024,2 30 0,0
14.07.2019 09:00:00 16,1 14,4 - - 15 8 N 1024,1 22 0,0
14.07.2019 08:00:00 15,4 14,1 - - 16 9 N 1023,9 25 0,0
14.07.2019 07:00:00 14,7 13,9 - - 15 8 N 1023,7 25 0,0
14.07.2019 06:00:00 14,3 14,1 - - 13 7 N 1023,5 11 0,0
14.07.2019 05:00:00 14,0 13,8 - - 11 6 N 1023,5 10 0,0
14.07.2019 04:00:00 13,9 13,5 - - 13 7 N 1023,5 12 0,6
14.07.2019 03:00:00 14,1 13,4 - - 8 4 NNE 1023,8 7 1,8
14.07.2019 02:00:00 14,4 13,1 - - 8 4 NE 1023,8 19 0,0
14.07.2019 01:00:00 14,5 12,5 - - 16 9 ENE 1023,5 45 0,0
14.07.2019 00:00:00 14,5 13,6 - - 13 7 NE 1023,7 29 0,0
13.07.2019 23:00:00 13,3 12,3 - - 15 8 ENE 1023,3 30 0,0
13.07.2019 22:00:00 13,8 12,3 - - 13 7 ENE 1023,3 35 0,0
13.07.2019 21:00:00 15,4 13,0 - - 13 7 ENE 1023,2 40 0,0
13.07.2019 20:00:00 16,1 13,4 - - 18 10 ENE 1023,1 35 0,0
13.07.2019 19:00:00 16,6 13,8 - - 22 12 ENE 1023,0 35 0,0
13.07.2019 18:00:00 17,2 14,5 - - 21 11 ENE 1022,9 30 0,0
13.07.2019 17:00:00 17,5 14,3 - - 22 12 ENE 1022,8 50 0,0
13.07.2019 16:00:00 18,0 14,0 - - 18 10 ENE 1022,8 16 0,0
13.07.2019 15:00:00 18,9 13,8 - - 22 12 ENE 1022,8 40 0,0
13.07.2019 14:00:00 18,5 14,4 - - 22 12 ENE 1022,8 50 0,0
13.07.2019 13:00:00 19,6 15,4 - - 18 10 ENE 1022,7 21 0,0
13.07.2019 12:00:00 18,1 13,5 - - 21 11 N 1022,5 4,2 0,0
13.07.2019 11:00:00 17,9 14,1 - - 16 9 N 1022,1 45 0,0
13.07.2019 10:00:00 17,0 14,1 17,9 15,7 18 10 N 1021,8 35 0,0
13.07.2019 09:00:00 16,8 14,7 - - 13 7 NNW 1021,5 26 0,0
13.07.2019 08:00:00 15,5 14,2 - - 9 5 NNW 1021,4 18 0,0
13.07.2019 07:00:00 15,0 13,5 - - 16 9 NNW 1020,9 15 0,0
13.07.2019 06:00:00 14,8 13,1 - - 18 10 NNW 1020,4 35 0,0
13.07.2019 05:00:00 14,9 12,9 - - 16 9 NW 1020,0 40 0,0
13.07.2019 04:00:00 15,2 13,5 - - 13 7 WNW 1019,6 40 0,0
13.07.2019 03:00:00 15,3 13,4 - - 11 6 NW 1019,6 45 0,0
13.07.2019 02:00:00 15,9 13,8 - - 18 10 NNW 1019,6 50 0,0
13.07.2019 01:00:00 15,7 14,4 - - 5 3 NNW 1019,4 50 0,0
13.07.2019 00:00:00 16,2 14,6 - - 4 2 NNE 1019,2 50 0,0
12.07.2019 23:00:00 16,0 14,6 - - 8 4 N 1018,9 50 0,0
12.07.2019 22:00:00 16,8 14,6 - - 9 5 N 1018,3 45 0,0
12.07.2019 21:00:00 17,3 14,4 - - 15 8 NE 1017,4 50 0,0
12.07.2019 20:00:00 18,9 14,8 - - 21 11 NE 1016,8 50 0,0
12.07.2019 19:00:00 19,5 15,0 - - 21 11 NE 1016,3 45 0,0
12.07.2019 18:00:00 19,5 15,9 - - 26 14 ENE 1015,9 50 0,0
12.07.2019 17:00:00 19,6 15,8 - - 28 15 ENE 1015,5 50 0,0
12.07.2019 16:00:00 19,9 15,6 - - 29 16 ENE 1015,0 30 0,0
12.07.2019 15:00:00 22,1 12,6 - - 24 13 NW 1014,4 50 0,0
12.07.2019 14:00:00 21,9 12,9 - - 22 12 NW 1013,9 50 0,0
12.07.2019 13:00:00 21,2 12,4 - - 24 13 NW 1013,9 35 0,0
12.07.2019 12:00:00 21,0 13,1 - - 22 12 NW 1013,5 45 0,0
12.07.2019 11:00:00 20,0 14,7 - - 26 14 NW 1013,2 35 0,0
12.07.2019 10:00:00 19,1 15,3 17,9 15,5 21 11 NW 1013,0 19 0,0
12.07.2019 09:00:00 17,7 15,9 - - 16 9 WNW 1012,9 12 0,0
12.07.2019 08:00:00 16,2 15,2 - - 11 6 W 1012,7 14 0,0
12.07.2019 07:00:00 15,5 15,3 - - 13 7 W 1012,4 15 0,0
12.07.2019 06:00:00 14,5 14,2 - - 13 7 W 1012,0 11 0,0
12.07.2019 05:00:00 14,7 14,4 - - 11 6 W 1011,7 9 0,4
12.07.2019 04:00:00 14,8 14,4 - - 11 6 W 1011,5 19 0,0
12.07.2019 03:00:00 15,4 14,4 - - 11 6 NW 1011,2 50 0,4
12.07.2019 02:00:00 16,7 16,1 - - 15 8 W 1011,4 35 0,0
12.07.2019 01:00:00 16,6 15,9 - - 11 6 W 1011,6 50 0,0
12.07.2019 00:00:00 15,6 14,7 - - 13 7 WSW 1011,6 30 0,0
11.07.2019 23:00:00 16,3 15,2 - - 16 9 WSW 1011,4 50 0,0
11.07.2019 22:00:00 17,6 15,6 - - 15 8 WNW 1011,4 10 0,0
11.07.2019 21:00:00 18,6 15,8 - - 16 9 W 1010,9 50 0,0
11.07.2019 20:00:00 20,0 14,8 - - 18 10 W 1011,1 50 0,0
11.07.2019 19:00:00 21,8 15,1 - - 22 12 W 1010,8 50 0,0
11.07.2019 18:00:00 24,6 15,7 - - 22 12 W 1010,4 10 0,0
11.07.2019 17:00:00 24,3 14,5 - - 18 10 W 1010,8 40 0,0
11.07.2019 16:00:00 23,3 15,2 - - 21 11 WNW 1010,9 10 0,0
11.07.2019 15:00:00 24,7 16,1 - - 16 9 W 1011,0 10 0,0
11.07.2019 14:00:00 21,8 14,8 - - 13 7 W 1011,3 50 0,0
11.07.2019 13:00:00 22,1 15,3 - - 16 9 NW 1011,5 10 0,0
11.07.2019 12:00:00 22,3 15,4 - - 9 5 W 1011,6 35 0,0
11.07.2019 11:00:00 20,2 14,8 - - 15 8 NW 1011,9 10 0,0
11.07.2019 10:00:00 19,7 15,5 17,7 15,4 11 6 WSW 1011,9 10 0,0
11.07.2019 09:00:00 18,0 14,9 - - 18 10 W 1012,3 50 0,0
11.07.2019 08:00:00 17,6 14,5 - - 15 8 W 1012,0 50 0,0
11.07.2019 07:00:00 15,7 15,1 - - 9 5 WSW 1012,2 27 0,0
11.07.2019 06:00:00 14,4 14,0 - - 5 3 W 1012,2 30 0,0
11.07.2019 05:00:00 14,1 13,3 - - 9 5 W 1012,2 28 0,0
11.07.2019 04:00:00 15,2 14,0 - - 9 5 W 1012,5 40 0,0
11.07.2019 03:00:00 15,6 14,3 - - 11 6 WSW 1013,2 35 0,0
11.07.2019 02:00:00 16,0 14,4 - - 9 5 WSW 1013,4 35 0,0
11.07.2019 01:00:00 16,2 14,8 - - 11 6 WSW 1013,7 45 0,0
11.07.2019 00:00:00 16,5 15,0 - - 11 6 WSW 1013,9 45 0,0
10.07.2019 23:00:00 16,3 14,7 - - 11 6 WSW 1014,1 50 0,0
10.07.2019 22:00:00 16,8 14,6 - - 9 5 WSW 1014,2 50 0,0
10.07.2019 21:00:00 18,7 15,0 - - 11 6 WSW 1014,5 45 0,0
10.07.2019 20:00:00 20,6 15,8 - - 9 5 WSW 1014,8 50 0,0
10.07.2019 19:00:00 21,7 14,7 - - 13 7 WSW 1015,3 50 0,0
10.07.2019 18:00:00 22,1 14,9 - - 16 9 W 1015,6 50 0,0
10.07.2019 17:00:00 22,7 15,2 - - 15 8 W 1015,9 45 0,0
10.07.2019 16:00:00 22,3 15,3 - - 21 11 W 1016,4 50 0,0
10.07.2019 15:00:00 23,3 16,3 - - 16 9 W 1016,6 22 0,0
10.07.2019 14:00:00 21,9 16,8 - - 9 5 W 1016,9 27 0,0
10.07.2019 13:00:00 21,6 17,3 - - 9 5 W 1017,3 10 0,0
10.07.2019 12:00:00 21,2 18,0 - - 11 6 W 1017,6 10 0,0
10.07.2019 11:00:00 20,7 16,6 - - 9 5 W 1018,0 10 -
10.07.2019 10:00:00 19,7 16,4 17,5 15,4 9 5 WNW 1018,4 10 0,0

tt = temperature
td = dewpoint
tt -20cm = temperature -20cm
tt -100cm = temperature -100cm
ff = wind speed
dd = wind direction
ppp = reduced air pressure
vv = visibility
rr = precipitation

Next stations